N604KE KVNY-KTRM

Flight info

Callsign N604KE
Flight time 0h 38m
Altitude 17000
Route NUAL1 PMD V137 PSP JEROD
Aircraft CL60/M-SADE3FGHIJ3J4J7P2RWXY/HB1D1

Departure

Time 2026-04-30 12:41
Airport Van Nuys Airport (KVNY)

Arrival

Time 2026-04-30 13:19
Airport Jacqueline Cochran Regional Airport (KTRM)
Time Latitude Longitude Altitude Speed Heading
2026-04-30 12:25 34.20588 -118.49356 777 ft 0 kts
2026-04-30 12:37 34.20590 -118.49356 777 ft 2 kts
2026-04-30 12:37 34.20612 -118.49335 778 ft 6 kts 43°
2026-04-30 12:37 34.20656 -118.49299 778 ft 10 kts 78°
2026-04-30 12:38 34.20657 -118.49178 777 ft 17 kts 90°
2026-04-30 12:38 34.20681 -118.49120 777 ft 7 kts 339°
2026-04-30 12:38 34.20741 -118.49132 778 ft 9 kts 355°
2026-04-30 12:38 34.20827 -118.49140 781 ft 16 kts 355°
2026-04-30 12:39 34.20957 -118.49152 785 ft 20 kts 356°
2026-04-30 12:39 34.21108 -118.49166 788 ft 22 kts 356°
2026-04-30 12:39 34.21271 -118.49181 793 ft 23 kts 355°
2026-04-30 12:39 34.21437 -118.49197 798 ft 20 kts 358°
2026-04-30 12:40 34.21561 -118.49216 801 ft 16 kts 355°
2026-04-30 12:40 34.21680 -118.49227 805 ft 16 kts 357°
2026-04-30 12:40 34.21711 -118.49187 805 ft 9 kts 100°
2026-04-30 12:40 34.21689 -118.49110 805 ft 5 kts 151°
2026-04-30 12:41 34.21603 -118.49095 802 ft 42 kts 175°
2026-04-30 12:41 34.20908 -118.49029 818 ft 149 kts 175°
2026-04-30 12:41 34.19748 -118.48901 1575 ft 180 kts 175°
2026-04-30 12:41 34.18438 -118.48756 2543 ft 196 kts 174°
2026-04-30 12:42 34.17253 -118.48643 3411 ft 159 kts 175°
2026-04-30 12:42 34.16109 -118.48541 3999 ft 175 kts 174°
2026-04-30 12:42 34.14819 -118.48428 4483 ft 192 kts 174°
2026-04-30 12:42 34.13478 -118.48227 4964 ft 197 kts 162°
2026-04-30 12:43 34.12421 -118.47224 5425 ft 201 kts 116°
2026-04-30 12:43 34.12045 -118.45642 5938 ft 195 kts 96°
2026-04-30 12:43 34.11878 -118.44012 6460 ft 195 kts 95°
2026-04-30 12:43 34.11728 -118.42381 6967 ft 197 kts 94°
2026-04-30 12:44 34.11781 -118.40750 7468 ft 198 kts 67°
2026-04-30 12:44 34.12520 -118.39343 7975 ft 206 kts 51°
2026-04-30 12:44 34.13450 -118.37875 8475 ft 238 kts 51°
2026-04-30 12:44 34.14497 -118.36196 8959 ft 251 kts 52°
2026-04-30 12:45 34.15540 -118.34517 9453 ft 253 kts 52°
2026-04-30 12:45 34.16822 -118.33073 9957 ft 254 kts 27°
2026-04-30 12:45 34.18423 -118.32145 10451 ft 257 kts 22°
2026-04-30 12:45 34.20112 -118.31387 10958 ft 257 kts
2026-04-30 12:46 34.21952 -118.31410 11456 ft 282 kts 354°
2026-04-30 12:46 34.24043 -118.31580 11931 ft 313 kts 354°
2026-04-30 12:46 34.26286 -118.31744 12418 ft 322 kts 355°
2026-04-30 12:46 34.28518 -118.31904 12911 ft 325 kts 354°
2026-04-30 12:47 34.30785 -118.32064 13413 ft 328 kts 354°
2026-04-30 12:47 34.33082 -118.32227 13919 ft 331 kts 354°
2026-04-30 12:47 34.35410 -118.32391 14430 ft 334 kts 354°
2026-04-30 12:47 34.37769 -118.32557 14929 ft 351 kts 354°
2026-04-30 12:48 34.40312 -118.32738 15424 ft 371 kts 354°
2026-04-30 12:48 34.42938 -118.32780 15806 ft 384 kts
2026-04-30 12:48 34.45569 -118.32040 15919 ft 390 kts 19°
2026-04-30 12:48 34.47938 -118.30321 15929 ft 400 kts 39°
2026-04-30 12:49 34.49827 -118.27744 15913 ft 414 kts 51°
2026-04-30 12:49 34.51593 -118.24904 15918 ft 419 kts 52°
2026-04-30 12:49 34.53366 -118.22065 15932 ft 419 kts 51°
2026-04-30 12:49 34.55131 -118.19237 15936 ft 419 kts 51°
2026-04-30 12:50 34.56914 -118.16380 15938 ft 419 kts 51°
2026-04-30 12:50 34.58680 -118.13532 15928 ft 419 kts 53°
2026-04-30 12:50 34.60101 -118.10444 15942 ft 421 kts 67°
2026-04-30 12:50 34.60860 -118.06945 15933 ft 424 kts 82°
2026-04-30 12:51 34.60855 -118.03376 15933 ft 424 kts 98°
2026-04-30 12:51 34.60108 -117.99954 15931 ft 422 kts 113°
2026-04-30 12:51 34.58775 -117.96780 15927 ft 422 kts 120°
2026-04-30 12:51 34.57335 -117.93643 15925 ft 421 kts 120°
2026-04-30 12:52 34.55907 -117.90522 15933 ft 421 kts 120°
2026-04-30 12:52 34.54486 -117.87416 15931 ft 421 kts 120°
2026-04-30 12:52 34.53058 -117.84300 15930 ft 421 kts 120°
2026-04-30 12:52 34.51636 -117.81198 15927 ft 421 kts 120°
2026-04-30 12:53 34.50215 -117.78102 15927 ft 421 kts 120°
2026-04-30 12:53 34.48780 -117.74979 15928 ft 421 kts 120°
2026-04-30 12:53 34.47354 -117.71877 15927 ft 421 kts 120°
2026-04-30 12:53 34.45938 -117.68800 15928 ft 421 kts 120°
2026-04-30 12:54 34.44504 -117.65686 15927 ft 422 kts 120°
2026-04-30 12:54 34.43062 -117.62557 15924 ft 421 kts 120°
2026-04-30 12:54 34.41622 -117.59438 15929 ft 421 kts 120°
2026-04-30 12:54 34.40178 -117.56311 15930 ft 422 kts 120°
2026-04-30 12:55 34.38744 -117.53210 15927 ft 422 kts 120°
2026-04-30 12:55 34.37326 -117.50142 15923 ft 421 kts 120°
2026-04-30 12:55 34.35887 -117.47035 15931 ft 421 kts 120°
2026-04-30 12:55 34.34451 -117.43937 15935 ft 422 kts 121°
2026-04-30 12:56 34.32997 -117.40801 15930 ft 422 kts 120°
2026-04-30 12:56 34.31562 -117.37708 15945 ft 422 kts 120°
2026-04-30 12:56 34.30146 -117.34660 15933 ft 422 kts 121°
2026-04-30 12:56 34.28677 -117.31498 15949 ft 422 kts 121°
2026-04-30 12:57 34.27222 -117.28367 15939 ft 423 kts 121°
2026-04-30 12:57 34.25788 -117.25281 15939 ft 421 kts 121°
2026-04-30 12:57 34.24337 -117.22170 15963 ft 422 kts 121°
2026-04-30 12:57 34.22911 -117.19119 15949 ft 422 kts 121°
2026-04-30 12:58 34.21444 -117.15982 15942 ft 422 kts 121°
2026-04-30 12:58 34.20007 -117.12905 15945 ft 422 kts 121°
2026-04-30 12:58 34.18568 -117.09828 15942 ft 420 kts 121°
2026-04-30 12:58 34.17114 -117.06722 15961 ft 420 kts 121°
2026-04-30 12:59 34.15680 -117.03660 15970 ft 420 kts 121°
2026-04-30 12:59 34.14231 -117.00569 15982 ft 422 kts 121°
2026-04-30 12:59 34.12782 -116.97482 15958 ft 422 kts 121°
2026-04-30 12:59 34.11332 -116.94392 15975 ft 422 kts 121°
2026-04-30 13:00 34.09886 -116.91316 15969 ft 422 kts 121°
2026-04-30 13:00 34.08417 -116.88193 15977 ft 422 kts 121°
2026-04-30 13:00 34.06968 -116.85117 15979 ft 422 kts 121°
2026-04-30 13:00 34.05506 -116.82012 15977 ft 423 kts 121°
2026-04-30 13:01 34.04049 -116.78925 15981 ft 422 kts 121°
2026-04-30 13:01 34.02599 -116.75851 15966 ft 422 kts 121°
2026-04-30 13:01 34.01142 -116.72770 15961 ft 422 kts 121°
2026-04-30 13:01 33.99682 -116.69684 15952 ft 421 kts 121°
2026-04-30 13:02 33.98255 -116.66664 15952 ft 395 kts 121°
2026-04-30 13:02 33.96925 -116.63853 15945 ft 380 kts 122°
2026-04-30 13:02 33.95630 -116.61122 15928 ft 375 kts 122°
2026-04-30 13:02 33.94324 -116.58371 15651 ft 373 kts 122°
2026-04-30 13:03 33.93048 -116.55682 15280 ft 362 kts 122°
2026-04-30 13:03 33.91800 -116.53057 14903 ft 356 kts 121°
2026-04-30 13:03 33.90568 -116.50468 14521 ft 353 kts 121°
2026-04-30 13:03 33.89402 -116.48021 13988 ft 353 kts 121°
2026-04-30 13:04 33.88166 -116.45427 13345 ft 349 kts 121°
2026-04-30 13:04 33.86938 -116.43036 12691 ft 338 kts 130°
2026-04-30 13:04 33.85309 -116.41030 12047 ft 326 kts 139°
2026-04-30 13:04 33.83658 -116.39181 11446 ft 317 kts 138°
2026-04-30 13:05 33.82084 -116.37408 11063 ft 298 kts 138°
2026-04-30 13:05 33.80666 -116.35809 11075 ft 263 kts 138°
2026-04-30 13:05 33.79394 -116.34376 10705 ft 260 kts 139°
2026-04-30 13:06 33.76524 -116.31158 9603 ft 279 kts 138°
2026-04-30 13:06 33.75078 -116.29533 9082 ft 278 kts 138°
2026-04-30 13:06 33.73642 -116.27921 8572 ft 276 kts 137°
2026-04-30 13:06 33.72248 -116.26356 8075 ft 275 kts 137°
2026-04-30 13:07 33.70818 -116.24753 7561 ft 271 kts 137°
2026-04-30 13:07 33.69443 -116.23211 7096 ft 264 kts 136°
2026-04-30 13:07 33.68087 -116.21691 6917 ft 259 kts 136°
2026-04-30 13:07 33.66744 -116.20185 6913 ft 261 kts 136°
2026-04-30 13:08 33.65406 -116.18687 6891 ft 260 kts 136°
2026-04-30 13:08 33.64079 -116.17200 6889 ft 259 kts 136°
2026-04-30 13:08 33.62765 -116.15730 6890 ft 259 kts 136°
2026-04-30 13:08 33.61433 -116.14239 6890 ft 259 kts 136°
2026-04-30 13:09 33.60115 -116.12765 6898 ft 253 kts 136°
2026-04-30 13:09 33.58837 -116.11336 6886 ft 248 kts 136°
2026-04-30 13:09 33.57559 -116.09907 6887 ft 248 kts 136°
2026-04-30 13:09 33.56299 -116.08500 6888 ft 248 kts 136°
2026-04-30 13:10 33.55033 -116.07086 6897 ft 244 kts 137°
2026-04-30 13:10 33.53797 -116.05705 6882 ft 240 kts 137°
2026-04-30 13:10 33.52566 -116.04333 6870 ft 238 kts 137°
2026-04-30 13:10 33.51363 -116.02990 6860 ft 237 kts 136°
2026-04-30 13:11 33.50138 -116.01623 6865 ft 238 kts 136°
2026-04-30 13:11 33.48913 -116.00279 6799 ft 241 kts 139°
2026-04-30 13:11 33.47417 -115.99378 6313 ft 241 kts 163°
2026-04-30 13:11 33.45793 -115.98904 5743 ft 236 kts 166°
2026-04-30 13:12 33.44232 -115.98447 5213 ft 230 kts 165°
2026-04-30 13:12 33.42682 -115.98008 4695 ft 229 kts 169°
2026-04-30 13:12 33.41132 -115.98259 4204 ft 225 kts 208°
2026-04-30 13:13 33.39913 -116.01485 3455 ft 218 kts 272°
2026-04-30 13:13 33.40220 -116.03243 3110 ft 212 kts 292°
2026-04-30 13:13 33.42070 -116.05856 2864 ft 205 kts 328°
2026-04-30 13:14 33.43329 -116.06503 2879 ft 192 kts 345°
2026-04-30 13:14 33.44635 -116.06814 2884 ft 185 kts 351°
2026-04-30 13:14 33.47049 -116.07420 2727 ft 174 kts 337°
2026-04-30 13:15 33.48008 -116.08263 2452 ft 168 kts 319°
2026-04-30 13:15 33.49701 -116.10058 2114 ft 156 kts 321°
2026-04-30 13:15 33.50483 -116.10859 1945 ft 142 kts 321°
2026-04-30 13:16 33.51239 -116.11632 1745 ft 142 kts 321°
2026-04-30 13:16 33.51996 -116.12404 1686 ft 142 kts 321°
2026-04-30 13:16 33.52749 -116.13172 1595 ft 143 kts 321°
2026-04-30 13:17 33.54417 -116.14147 1173 ft 130 kts 344°
2026-04-30 13:17 33.55295 -116.14471 1049 ft 133 kts 341°
2026-04-30 13:17 33.56772 -116.15129 1148 ft 134 kts 341°
2026-04-30 13:18 33.57906 -116.15507 793 ft 122 kts 349°
2026-04-30 13:18 33.59534 -116.15640 388 ft 114 kts 358°
2026-04-30 13:18 33.60327 -116.15645 238 ft 114 kts 358°
2026-04-30 13:19 33.61107 -116.15646 40 ft 106 kts 358°
2026-04-30 13:19 33.61827 -116.15644 -85 ft 97 kts 358°
2026-04-30 13:19 33.62408 -116.15642 -96 ft 67 kts 359°
2026-04-30 13:19 33.62762 -116.15643 -94 ft 42 kts 360°